Tracking 27107 objects as of 21-Mar-2023
HD Live streaming from Space Station
objects crossing your sky now

SL-12 R/B(2)

Track SL-12 R/B(2) now!


NORAD ID: 26992
Int'l Code: 2001-053F
Perigee: 19,054.6 km
Apogee: 19,140.8 km
Inclination: 63.4 °
Period: 674.2 minutes
Semi major axis: 25468 km
RCS: 0.003 m2 (small)
Launch date: December 1, 2001
Source: Commonwealth of Independent States (former USSR) (CIS)
Launch site: TYURATAM MISSILE AND SPACE COMPLEX (TTMTR)

Note: This is a ROCKET BODY
Your satellite tracking list
Your tracking list is empty




NASA's NSSDC Master Catalog

Two Line Element Set (TLE):
1 26992U 01053F   23078.04701479  .00000064  00000-0  00000+0 0  9998
2 26992  63.3884  98.3549 0016916 268.3380 107.5129  2.13595839166152
Source of the keplerian elements: AFSPC